Regional Weather Roundup
Issued by NWS Newport/Morehead, NC

Current Version | Previous Version | Graphics & Text | Print | Product List | Glossary Off
Versions: 1 2 3 4 5 6 7 8 9 10 11 12 13 14 15 16 17 18 19 20 21 22 23 24 25 26 27 28 29 30 31 32 33 34 35 36 37 38 39 40 41 42 43 44 45 46 47 48 49 50

499
ASUS42 KMHX 271525
RWRMHX
WEATHER ROUNDUP FOR EASTERN NORTH CAROLINA
NATIONAL WEATHER SERVICE NEWPORT/MOREHEAD CITY NC
1100 AM EDT THU APR 27 2017

NOTE: "FAIR" INDICATES FEW OR NO CLOUDS BELOW 12,000 FEET
WITH NO SIGNIFICANT WEATHER AND/OR OBSTRUCTIONS TO VISIBILITY

NCZ015>017-031-032-045>047-102-103-271600-
NORTH COAST

CITY           SKY/WX    TMP DP  RH WIND       PRES   REMARKS
EDENTON        SUNNY     79  62  56 SW12      29.95S
ELIZABETH CITY SUNNY     77  65  66 SW15G21   29.94R
KITTY HAWK     SUNNY     78  63  59 SW8       29.95R
MANTEO         MOSUNNY   76  64  67 W13       29.96R

$$

NCZ045>047-081-094-103-104-271600-
CENTRAL COAST

CITY           SKY/WX    TMP DP  RH WIND       PRES   REMARKS
FRISCO         SUNNY     76  64  66 SW7       29.98R HAZE

$$

NCZ095-097-098-100-101-271600-
SOUTHERN COAST

CITY           SKY/WX    TMP DP  RH WIND       PRES   REMARKS
BEAUFORT       CLOUDY    72  70  93 SW7       29.98R
CEDAR ISLAND   NOT AVBL
JACKSONVILLE   NOT AVBL
PINEY ISLAND   MOSUNNY  N/A N/A N/A S14       29.97R
WILMINGTON     PTSUNNY   79  62  56 W10       29.96S


$$

NCZ011>013-027>030-043-044-078>080-089-090>093-098-271600-
COASTAL PLAIN

CITY           SKY/WX    TMP DP  RH WIND       PRES   REMARKS
AHOSKIE          N/A     76  61  60 S8        29.93S
CLINTON        SUNNY     76  64  64 SW6       29.95S
ELIZABETHTOWN  SUNNY     77  61  57 SW7       29.95F
GOLDSBORO      SUNNY     77  67  72 SW14      29.93S
GREENVILLE     SUNNY     77  63  61 W13       29.96S
HAVELOCK       NOT AVBL
KENANSVILLE    SUNNY     77  63  61 SW10G17   29.95S
KINSTON        SUNNY     79  63  57 SW14      29.95
NEW BERN       PTSUNNY   77  63  61 SW12G18   29.97R
RICHLANDS      MOSUNNY   78  65  63 SW9       29.96S
ROCKY MOUNT    SUNNY     76  65  68 SW9       29.93F
WASHINGTON     SUNNY     78  62  58 SW9G17    29.95S
WHITEVILLE     SUNNY     77  60  54 S9        29.94F

$$

AMZ130-135-150-152-154-156-158-170-250-252-270-ANZ085-086-088-633-658-670-271600-
MARINE OBSERVATIONS

STATION/POSITION TIME  TEMP    WIND        PRES    WAVE   SWELL
                       AIR SEA DIR/SP/G            HT/PER HT/PER
                 (UTC) (F)     (DEG/KT/KT) (MB)    (FT/S) (FT/S)
CHESAPEAKE LIGHT NOT AVBL
64 E VA BEACH    1450   59 56  210/  8/ 10 1014.5    5/10   5/10
DUCK             1500   74 58  210/ 12/ 14 1013.9
2 E DUCK         1500      62                N/A     3/11   2/11
OREGON INLET     1500   70 67  180/ 10/ 11 1014.7
13E OREGON INLT  1448      61                N/A     4/13   5/13
HATTERAS CG      1500   74 69  210/  6/  8 1015.0
DIAMOND BUOY     1450   77 77  210/ 16/ 17 1014.9    5/ 8   3/ 8
CAPE LOOKOUT     1500   72     250/  9/ 13 1014.9
BEAUFORT LAB     1500   72 67  210/  5/  7 1014.3
30 SE NEW RVR IN 1508   72     240/  8/ 12 1015.4
30 SE NEW RVR IN 1443      72                N/A     4/ 9   2/11
27 SE WRIGHTSVLE 1508   73 72  230/ 10/ 14 1014.5
5 SE WRIGHTSVLE  1508   72 71  210/  8/ 14 1014.7
225 S CAPE HAT   1450   74 74  180/ 14/ 16 1017.7    5/ 8   3/ 8
41 SE CHARLESTON 1500   74 73  220/  8/ 10 1015.0

$$




USA.gov is the U.S. government's official web portal to all federal, state and local government web resources and services.